| time (UTC) | temp F | wind direction | speed MPH | gust MPH | rain 1hr in | rain 24hr in | rain mn in | humidity % | barometer mb |
| 20260504040527 | 49 | 272 | 0.0 | 0.0 | 0.00 | 0.00 | 0.00 | 48 | 1013.0 |
| 20260504040023 | 48 | 236 | 0.0 | 0.0 | 0.00 | 0.00 | 0.00 | 49 | 1012.8 |
| 20260504035520 | 48 | 299 | 0.0 | 0.0 | 0.00 | 0.00 | 0.00 | 49 | 1012.8 |
| 20260504035016 | 48 | 281 | 0.0 | 0.0 | 0.00 | 0.00 | 0.00 | 49 | 1012.7 |
| 20260504034514 | 48 | 286 | 0.0 | 0.0 | 0.00 | 0.00 | 0.00 | 49 | 1012.6 |
| 20260504034011 | 48 | 251 | 0.0 | 0.0 | 0.00 | 0.00 | 0.00 | 49 | 1012.6 |
| 20260504033509 | 48 | 240 | 0.0 | 0.0 | 0.00 | 0.00 | 0.00 | 49 | 1012.6 |
| 20260504033006 | 48 | 176 | 0.0 | 0.0 | 0.00 | 0.00 | 0.00 | 49 | 1012.7 |
| 20260504032503 | 48 | 177 | 0.0 | 0.0 | 0.00 | 0.00 | 0.00 | 49 | 1012.7 |
| 20260504031959 | 48 | 293 | 0.0 | 0.0 | 0.00 | 0.00 | 0.00 | 48 | 1012.7 |
| 20260504031456 | 48 | 293 | 0.0 | 0.0 | 0.00 | 0.00 | 0.00 | 48 | 1012.6 |
| 20260504030953 | 48 | 192 | 0.0 | 0.0 | 0.00 | 0.00 | 0.00 | 48 | 1012.6 |
| 20260504030450 | 49 | 235 | 0.0 | 0.0 | 0.00 | 0.00 | 0.00 | 48 | 1012.6 |
| 20260504025946 | 49 | 250 | 0.0 | 0.0 | 0.00 | 0.00 | 0.00 | 47 | 1012.7 |
| 20260504025443 | 49 | 186 | 0.0 | 0.0 | 0.00 | 0.00 | 0.00 | 47 | 1012.3 |
| 20260504024940 | 48 | 199 | 0.0 | 0.0 | 0.00 | 0.00 | 0.00 | 47 | 1012.6 |
| 20260504024437 | 49 | 280 | 0.0 | 0.0 | 0.00 | 0.00 | 0.00 | 47 | 1012.7 |
| 20260504023934 | 49 | 289 | 0.0 | 0.0 | 0.00 | 0.00 | 0.00 | 46 | 1012.6 |
| 20260504023430 | 49 | 276 | 0.0 | 0.0 | 0.00 | 0.00 | 0.00 | 46 | 1012.7 |
| 20260504022926 | 49 | 206 | 0.0 | 0.0 | 0.00 | 0.00 | 0.00 | 46 | 1012.5 |
| 20260504022423 | 50 | 269 | 0.0 | 0.0 | 0.00 | 0.00 | 0.00 | 45 | 1012.8 |
| 20260504021919 | 50 | 287 | 0.0 | 0.0 | 0.00 | 0.00 | 0.00 | 45 | 1012.6 |
| 20260504021417 | 50 | 301 | 0.0 | 0.0 | 0.00 | 0.00 | 0.00 | 45 | 1012.8 |
| 20260504020914 | 50 | 264 | 0.0 | 0.0 | 0.00 | 0.00 | 0.00 | 44 | 1012.6 |
| 20260504020410 | 50 | 277 | 0.0 | 0.0 | 0.00 | 0.00 | 0.00 | 44 | 1012.5 |
| 20260504015907 | 50 | 287 | 0.0 | 0.0 | 0.00 | 0.00 | 0.00 | 44 | 1012.6 |
| 20260504015403 | 50 | 324 | 0.0 | 0.0 | 0.00 | 0.00 | 0.00 | 44 | 1012.6 |
| 20260504014859 | 50 | 292 | 0.0 | 0.0 | 0.00 | 0.00 | 0.00 | 44 | 1012.8 |
| 20260504014355 | 50 | 253 | 0.0 | 0.0 | 0.00 | 0.00 | 0.00 | 44 | 1012.6 |
| 20260504013853 | 50 | 259 | 0.0 | 0.0 | 0.00 | 0.00 | 0.00 | 44 | 1012.5 |
| 20260504013351 | 50 | 312 | 0.0 | 0.0 | 0.00 | 0.00 | 0.00 | 44 | 1012.6 |
| 20260504012847 | 51 | 311 | 0.0 | 0.0 | 0.00 | 0.00 | 0.00 | 43 | 1012.5 |
| 20260504012345 | 51 | 290 | 0.0 | 0.0 | 0.00 | 0.00 | 0.00 | 42 | 1012.2 |
| 20260504011842 | 51 | 280 | 0.0 | 0.0 | 0.00 | 0.00 | 0.00 | 42 | 1012.6 |
| 20260504011338 | 51 | 313 | 0.0 | 0.0 | 0.00 | 0.00 | 0.00 | 42 | 1012.3 |
| 20260504010835 | 51 | 323 | 0.0 | 0.0 | 0.00 | 0.00 | 0.00 | 41 | 1012.2 |
| 20260504010330 | 52 | 247 | 0.0 | 0.0 | 0.00 | 0.00 | 0.00 | 40 | 1012.1 |
| 20260504005827 | 52 | 223 | 0.0 | 0.0 | 0.00 | 0.00 | 0.00 | 39 | 1012.0 |
| 20260504005324 | 52 | 199 | 0.0 | 0.0 | 0.00 | 0.00 | 0.00 | 39 | 1012.0 |
| 20260504004821 | 53 | 261 | 0.0 | 0.0 | 0.00 | 0.00 | 0.00 | 39 | 1012.0 |
| 20260504004319 | 53 | 227 | 0.0 | 0.0 | 0.00 | 0.00 | 0.00 | 38 | 1011.9 |
| 20260504003815 | 53 | 273 | 0.0 | 0.0 | 0.00 | 0.00 | 0.00 | 38 | 1011.8 |
| 20260504003313 | 53 | 280 | 0.0 | 0.0 | 0.00 | 0.00 | 0.00 | 37 | 1011.6 |
| 20260504002809 | 53 | 261 | 0.0 | 0.0 | 0.00 | 0.00 | 0.00 | 37 | 1011.7 |
| 20260504002306 | 53 | 324 | 0.0 | 0.0 | 0.00 | 0.00 | 0.00 | 37 | 1011.6 |
| 20260504001803 | 54 | 313 | 0.0 | 0.0 | 0.00 | 0.00 | 0.00 | 36 | 1011.8 |
| 20260504001300 | 54 | 280 | 0.0 | 0.0 | 0.00 | 0.00 | 0.00 | 36 | 1011.4 |
| 20260504000757 | 54 | 301 | 0.0 | 0.0 | 0.00 | 0.00 | 0.00 | 36 | 1011.4 |
| 20260504000254 | 55 | 256 | 0.0 | 0.0 | 0.00 | 0.00 | 0.00 | 35 | 1011.5 |
| 20260503235752 | 55 | 299 | 0.0 | 0.0 | 0.00 | 0.00 | 0.00 | 34 | 1011.4 |
| 20260503235249 | 55 | 306 | 0.0 | 0.0 | 0.00 | 0.00 | 0.00 | 34 | 1011.3 |
| 20260503234747 | 56 | 294 | 0.0 | 0.0 | 0.00 | 0.00 | 0.00 | 34 | 1011.1 |
| 20260503234245 | 56 | 332 | 0.0 | 0.0 | 0.00 | 0.00 | 0.00 | 33 | 1011.2 |
| 20260503233741 | 56 | 285 | 0.0 | 0.0 | 0.00 | 0.00 | 0.00 | 33 | 1011.2 |
| 20260503233237 | 56 | 334 | 0.0 | 0.0 | 0.00 | 0.00 | 0.00 | 34 | 1011.3 |
| 20260503232734 | 57 | 297 | 0.0 | 0.0 | 0.00 | 0.00 | 0.00 | 33 | 1011.0 |
| 20260503232231 | 57 | 284 | 2.0 | 3.0 | 0.00 | 0.00 | 0.00 | 32 | 1011.2 |
| 20260503231730 | 58 | 354 | 0.0 | 0.0 | 0.00 | 0.00 | 0.00 | 32 | 1011.2 |
| 20260503231226 | 58 | 282 | 3.0 | 6.0 | 0.00 | 0.00 | 0.00 | 31 | 1011.2 |
| 20260503230722 | 58 | 20 | 0.0 | 0.0 | 0.00 | 0.00 | 0.00 | 31 | 1011.1 |
| 20260503230220 | 58 | 322 | 0.0 | 0.0 | 0.00 | 0.00 | 0.00 | 30 | 1010.9 |
| 20260503225717 | 58 | 285 | 2.0 | 7.0 | 0.00 | 0.00 | 0.00 | 30 | 1010.8 |
| 20260503225217 | 58 | 309 | 1.0 | 2.0 | 0.00 | 0.00 | 0.00 | 30 | 1010.9 |
| 20260503224715 | 58 | 231 | 5.0 | 9.0 | 0.00 | 0.00 | 0.00 | 30 | 1010.9 |
| 20260503224212 | 58 | 298 | 1.0 | 2.0 | 0.00 | 0.00 | 0.00 | 30 | 1010.8 |
| 20260503223710 | 58 | 278 | 2.0 | 5.0 | 0.00 | 0.00 | 0.00 | 30 | 1010.8 |
| 20260503223207 | 58 | 298 | 2.0 | 5.0 | 0.00 | 0.00 | 0.00 | 29 | 1010.8 |
| 20260503222703 | 59 | 324 | 0.0 | 1.0 | 0.00 | 0.00 | 0.00 | 30 | 1010.8 |
| 20260503222201 | 59 | 310 | 7.0 | 9.0 | 0.00 | 0.00 | 0.00 | 28 | 1010.6 |
| 20260503221659 | 59 | 271 | 6.0 | 8.0 | 0.00 | 0.00 | 0.00 | 28 | 1010.8 |
| 20260503221156 | 59 | 334 | 0.0 | 1.0 | 0.00 | 0.00 | 0.00 | 28 | 1010.7 |
| 20260503220653 | 59 | 287 | 1.0 | 5.0 | 0.00 | 0.00 | 0.00 | 31 | 1010.7 |
| 20260503220149 | 59 | 314 | 0.0 | 0.0 | 0.00 | 0.00 | 0.00 | 28 | 1010.9 |
| 20260503215647 | 59 | 345 | 1.0 | 2.0 | 0.00 | 0.00 | 0.00 | 30 | 1010.7 |
| 20260503215144 | 59 | 350 | 1.0 | 2.0 | 0.00 | 0.00 | 0.00 | 28 | 1010.7 |
| 20260503214643 | 58 | 315 | 1.0 | 2.0 | 0.00 | 0.00 | 0.00 | 28 | 1010.5 |
| 20260503214138 | 58 | 297 | 7.0 | 8.0 | 0.00 | 0.00 | 0.00 | 28 | 1010.8 |
| 20260503213637 | 58 | 333 | 9.0 | 11.0 | 0.00 | 0.00 | 0.00 | 28 | 1010.5 |
| 20260503213133 | 59 | 1 | 0.0 | 0.0 | 0.00 | 0.00 | 0.00 | 29 | 1010.6 |
| 20260503212631 | 59 | 357 | 0.0 | 0.0 | 0.00 | 0.00 | 0.00 | 27 | 1010.5 |
| 20260503212128 | 60 | 86 | 0.0 | 0.0 | 0.00 | 0.00 | 0.00 | 26 | 1010.7 |
| 20260503211626 | 59 | 16 | 2.0 | 6.0 | 0.00 | 0.00 | 0.00 | 27 | 1010.5 |
| 20260503211121 | 59 | 323 | 0.0 | 0.0 | 0.00 | 0.00 | 0.00 | 28 | 1010.5 |
| 20260503210618 | 59 | 8 | 2.0 | 3.0 | 0.00 | 0.00 | 0.00 | 28 | 1010.7 |
| 20260503210114 | 59 | 16 | 0.0 | 0.0 | 0.00 | 0.00 | 0.00 | 29 | 1010.5 |
| 20260503205610 | 59 | 17 | 1.0 | 5.0 | 0.00 | 0.00 | 0.00 | 30 | 1010.5 |
| 20260503205107 | 60 | 282 | 6.0 | 20.0 | 0.00 | 0.00 | 0.00 | 30 | 1010.6 |
| 20260503204604 | 60 | 320 | 3.0 | 6.0 | 0.00 | 0.00 | 0.00 | 27 | 1010.6 |
| 20260503204101 | 59 | 37 | 0.0 | 0.0 | 0.00 | 0.00 | 0.00 | 31 | 1010.6 |
| 20260503203558 | 59 | 301 | 5.0 | 9.0 | 0.00 | 0.00 | 0.00 | 29 | 1010.5 |
| 20260503203055 | 59 | 274 | 5.0 | 7.0 | 0.00 | 0.00 | 0.00 | 31 | 1010.7 |
| 20260503202553 | 58 | 337 | 5.0 | 8.0 | 0.00 | 0.00 | 0.00 | 29 | 1010.7 |
| 20260503202050 | 58 | 285 | 6.0 | 9.0 | 0.00 | 0.00 | 0.00 | 29 | 1010.7 |
| 20260503201548 | 58 | 297 | 6.0 | 13.0 | 0.00 | 0.00 | 0.00 | 28 | 1010.6 |
| 20260503201045 | 57 | 282 | 7.0 | 11.0 | 0.00 | 0.00 | 0.00 | 29 | 1010.9 |
| 20260503200542 | 58 | 311 | 6.0 | 8.0 | 0.00 | 0.00 | 0.00 | 29 | 1010.8 |
| 20260503200038 | 57 | 16 | 0.0 | 0.0 | 0.00 | 0.00 | 0.00 | 31 | 1011.1 |
| 20260503195535 | 58 | 295 | 6.0 | 11.0 | 0.00 | 0.00 | 0.00 | 29 | 1010.9 |
| 20260503195032 | 58 | 66 | 0.0 | 0.0 | 0.00 | 0.00 | 0.00 | 30 | 1010.8 |
| 20260503194529 | 57 | 311 | 4.0 | 8.0 | 0.00 | 0.00 | 0.00 | 30 | 1010.9 |
| 20260503194029 | 56 | 13 | 1.0 | 3.0 | 0.00 | 0.00 | 0.00 | 31 | 1011.0 |
| 20260503193526 | 55 | 320 | 0.0 | 0.0 | 0.00 | 0.00 | 0.00 | 34 | 1011.2 |
| 20260503193022 | 56 | 357 | 0.0 | 0.0 | 0.00 | 0.00 | 0.00 | 30 | 1011.2 |
| 20260503192518 | 56 | 358 | 8.0 | 11.0 | 0.00 | 0.00 | 0.00 | 32 | 1011.4 |
| 20260503192014 | 56 | 353 | 1.0 | 2.0 | 0.00 | 0.00 | 0.00 | 31 | 1011.4 |
| 20260503191511 | 56 | 289 | 9.0 | 16.0 | 0.00 | 0.00 | 0.00 | 30 | 1011.4 |
| 20260503191008 | 56 | 331 | 6.0 | 8.0 | 0.00 | 0.00 | 0.00 | 30 | 1011.1 |
| 20260503190504 | 56 | 357 | 3.0 | 8.0 | 0.00 | 0.00 | 0.00 | 31 | 1011.2 |
| 20260503190001 | 57 | 354 | 0.0 | 1.0 | 0.00 | 0.00 | 0.00 | 31 | 1011.4 |
| 20260503185458 | 55 | 313 | 0.0 | 2.0 | 0.00 | 0.00 | 0.00 | 33 | 1011.5 |
| 20260503184957 | 55 | 256 | 6.0 | 9.0 | 0.00 | 0.00 | 0.00 | 32 | 1011.4 |
| 20260503184454 | 55 | 352 | 3.0 | 8.0 | 0.00 | 0.00 | 0.00 | 32 | 1011.7 |
| 20260503183950 | 55 | 35 | 2.0 | 6.0 | 0.00 | 0.00 | 0.00 | 32 | 1011.7 |
| 20260503183447 | 54 | 10 | 5.0 | 10.0 | 0.00 | 0.00 | 0.00 | 35 | 1011.8 |
| 20260503182944 | 53 | 12 | 1.0 | 2.0 | 0.00 | 0.00 | 0.00 | 37 | 1011.8 |
| 20260503182443 | 53 | 18 | 0.0 | 0.0 | 0.00 | 0.00 | 0.00 | 34 | 1011.7 |
| 20260503181940 | 53 | 331 | 0.0 | 2.0 | 0.00 | 0.00 | 0.00 | 34 | 1011.7 |
| 20260503181437 | 54 | 25 | 3.0 | 5.0 | 0.00 | 0.00 | 0.00 | 33 | 1011.8 |
| 20260503180933 | 54 | 8 | 2.0 | 5.0 | 0.00 | 0.00 | 0.00 | 35 | 1011.8 |
| 20260503180431 | 55 | 346 | 1.0 | 3.0 | 0.00 | 0.00 | 0.00 | 35 | 1011.9 |
| 20260503175928 | 53 | 289 | 1.0 | 2.0 | 0.00 | 0.00 | 0.00 | 37 | 1011.8 |
| 20260503175426 | 53 | 14 | 2.0 | 3.0 | 0.00 | 0.00 | 0.00 | 37 | 1011.7 |
| 20260503174921 | 54 | 21 | 0.0 | 1.0 | 0.00 | 0.00 | 0.00 | 36 | 1011.8 |
| 20260503174420 | 52 | 18 | 0.0 | 1.0 | 0.00 | 0.00 | 0.00 | 34 | 1011.9 |
| 20260503173920 | 52 | 15 | 3.0 | 6.0 | 0.00 | 0.00 | 0.00 | 35 | 1011.7 |
| 20260503173416 | 52 | 23 | 2.0 | 2.0 | 0.00 | 0.00 | 0.00 | 34 | 1012.0 |
| 20260503172913 | 53 | 15 | 1.0 | 2.0 | 0.00 | 0.00 | 0.00 | 35 | 1012.0 |
| 20260503172411 | 52 | 345 | 2.0 | 5.0 | 0.00 | 0.00 | 0.00 | 38 | 1012.0 |
| 20260503171907 | 51 | 0 | 1.0 | 1.0 | 0.00 | 0.00 | 0.00 | 35 | 1012.0 |
| 20260503171404 | 50 | 353 | 0.0 | 1.0 | 0.00 | 0.00 | 0.00 | 38 | 1012.1 |
| 20260503170901 | 51 | 4 | 3.0 | 8.0 | 0.00 | 0.00 | 0.00 | 37 | 1012.2 |
| 20260503170357 | 52 | 2 | 4.0 | 9.0 | 0.00 | 0.00 | 0.00 | 35 | 1012.1 |
| 20260503150749 | 48 | 16 | 0.0 | 0.0 | 0.00 | 0.00 | 0.00 | 44 | 1013.2 |
| 20260503150245 | 47 | 356 | 0.0 | 0.0 | 0.00 | 0.00 | 0.00 | 46 | 1012.9 |
| 20260503140210 | 46 | 10 | 4.0 | 5.0 | 0.00 | 0.00 | 0.00 | 52 | 1012.9 |
| 20260503131140 | 47 | 167 | 3.0 | 7.0 | 0.00 | 0.00 | 0.00 | 52 | 1012.6 |
| 20260503130637 | 46 | 38 | 0.0 | 0.0 | 0.00 | 0.00 | 0.00 | 54 | 1012.7 |
| 20260503130135 | 45 | 25 | 7.0 | 14.0 | 0.00 | 0.00 | 0.00 | 53 | 1013.0 |
| 20260503110527 | 41 | 5 | 0.0 | 0.0 | 0.00 | 0.00 | 0.00 | 62 | 1012.3 |
| 20260503090414 | 42 | 26 | 0.0 | 0.0 | 0.00 | 0.00 | 0.00 | 60 | 1011.3 |
| 20260503081340 | 43 | 24 | 2.0 | 2.0 | 0.00 | 0.00 | 0.00 | 57 | 1010.9 |
| 20260503080837 | 43 | 24 | 1.0 | 2.0 | 0.00 | 0.00 | 0.00 | 56 | 1011.2 |
| 20260503080334 | 43 | 49 | 0.0 | 0.0 | 0.00 | 0.00 | 0.00 | 56 | 1010.9 |
| 20260503072811 | 44 | 1 | 0.0 | 1.0 | 0.00 | 0.00 | 0.00 | 55 | 1010.8 |
| 20260503072308 | 44 | 0 | 0.0 | 1.0 | 0.00 | 0.00 | 0.00 | 54 | 1010.7 |
| 20260503071803 | 44 | 19 | 0.0 | 1.0 | 0.00 | 0.00 | 0.00 | 55 | 1010.7 |
| 20260503071301 | 44 | 30 | 5.0 | 10.0 | 0.00 | 0.00 | 0.00 | 54 | 1010.7 |
| 20260503070757 | 44 | 7 | 0.0 | 1.0 | 0.00 | 0.00 | 0.00 | 54 | 1010.5 |
| 20260503070255 | 44 | 346 | 0.0 | 1.0 | 0.00 | 0.00 | 0.00 | 54 | 1010.5 |
| 20260503060226 | 45 | 18 | 0.0 | 0.0 | 0.00 | 0.00 | 0.00 | 53 | 1010.9 |
| 20260503054713 | 45 | 47 | 0.0 | 0.0 | 0.00 | 0.00 | 0.00 | 52 | 1011.1 |
| 20260503054210 | 45 | 21 | 4.0 | 7.0 | 0.00 | 0.00 | 0.00 | 52 | 1011.1 |
| 20260503053708 | 45 | 35 | 0.0 | 0.0 | 0.00 | 0.00 | 0.00 | 53 | 1011.3 |
| 20260503053207 | 45 | 60 | 0.0 | 0.0 | 0.00 | 0.00 | 0.00 | 53 | 1011.2 |
| 20260503052703 | 45 | 15 | 1.0 | 3.0 | 0.00 | 0.00 | 0.00 | 52 | 1011.2 |
| 20260503052159 | 45 | 17 | 0.0 | 0.0 | 0.00 | 0.00 | 0.00 | 52 | 1011.3 |
| 20260503051654 | 45 | 44 | 0.0 | 0.0 | 0.00 | 0.00 | 0.00 | 53 | 1011.4 |
| 20260503051153 | 45 | 18 | 0.0 | 0.0 | 0.00 | 0.00 | 0.00 | 53 | 1011.2 |
| 20260503050649 | 45 | 57 | 0.0 | 0.0 | 0.00 | 0.00 | 0.00 | 53 | 1011.6 |
| 20260503050145 | 45 | 47 | 0.0 | 0.0 | 0.00 | 0.00 | 0.00 | 52 | 1011.5 |
| 20260503045643 | 45 | 354 | 0.0 | 0.0 | 0.00 | 0.00 | 0.00 | 51 | 1011.6 |
| 20260503045140 | 45 | 30 | 0.0 | 1.0 | 0.00 | 0.00 | 0.00 | 52 | 1011.6 |
| 20260503044637 | 45 | 34 | 0.0 | 0.0 | 0.00 | 0.00 | 0.00 | 52 | 1011.7 |
| 20260503044134 | 46 | 4 | 0.0 | 0.0 | 0.00 | 0.00 | 0.00 | 51 | 1011.8 |
| 20260503043631 | 46 | 36 | 0.0 | 0.0 | 0.00 | 0.00 | 0.00 | 51 | 1011.9 |
| 20260503043128 | 46 | 26 | 0.0 | 0.0 | 0.00 | 0.00 | 0.00 | 51 | 1011.7 |
| 20260503042624 | 46 | 36 | 0.0 | 0.0 | 0.00 | 0.00 | 0.00 | 51 | 1011.9 |
| 20260503042120 | 46 | 20 | 1.0 | 2.0 | 0.00 | 0.00 | 0.00 | 50 | 1011.9 |
| 20260503041617 | 47 | 23 | 0.0 | 0.0 | 0.00 | 0.00 | 0.00 | 49 | 1011.7 |
| 20260503041115 | 47 | 32 | 0.0 | 1.0 | 0.00 | 0.00 | 0.00 | 49 | 1012.0 |